Tracking 31027 objects as of 19-Jul-2025
HD Live streaming from Space Station
objects crossing your sky now

COSMOS 2251 DEB

Track COSMOS 2251 DEB now!
10-day predictions


NORAD ID: 35614
Int'l Code: 1993-036ANH
Perigee: 629.9 km
Apogee: 738.2 km
Inclination: 74.0 °
Period: 98.3 minutes
Semi major axis: 7055 km
RCS: 0.0173 m2 (small)
Launch date: June 16, 1993
Source: Commonwealth of Independent States (former USSR) (CIS)
Launch site: PLESETSK MISSILE AND SPACE COMPLEX (PKMTR)

Note: This is SATELLITE DEBRIS
Your satellite tracking list
EKRAN 2 DEB
Track 1 satellite(s)




NASA's NSSDC Master Catalog

Two Line Element Set (TLE):
1 35614U 93036ANH 25198.83721209  .00002854  00000-0  51518-3 0  9999
2 35614  73.9576 253.7460 0076790 140.9228 219.7523 14.65048621855622
Source of the keplerian elements: AFSPC